User: anonymous   Login
Location: Unspecified
(0.0000°N, 0.0000°E)
Time: 08:46:00
(UTC+02:00)
Language:

Ariane H10 - Orbit

View from above orbital plane
View from above orbital plane
View from above satellite
View from above satellite

Ground track
Ground track

The orbit data is extracted from the following two-line orbital elements,

1 21815U 91084C   15187.85072558  .00000052  00000-0  40651-3 0  9997
2 21815 004.3102 014.1930 7190010 215.0589 351.2664 02.31329333195848
Epoch (UTC): 06 July 2015 20:25:02
Eccentricity: 0.7190010
inclination: 4.3102°
perigee height: 408 km
apogee height: 35135 km
right ascension of ascending node: 14.1930°
argument of perigee: 215.0589°
revolutions per day: 2.31329333
mean anomaly at epoch: 351.2664°
orbit number at epoch: 19584

The dashed part of the orbit path shows where the satellite is in the earth's shadow,  

DLR